sat.trackr.live / text

‹ back to catalog

STARLINK-34844

NORAD 66486 · 2025-263B

PAYLOAD ACTIVE UNKNOWN

§ Identity

Operator
Country
US
Launch date
2025-11-15
Launch site
AFETR
Launch vehicle
Mass (kg)
RCS (m²)

Purposes: comms

External: N2YO · Heavens-Above · Gunter

§ Orbital elements

Epoch: 2026-09-20T11:37:04.651968Z

Period
94.27 min
Inclination
43.0044°
Eccentricity
0.0000985
Mean motion
15.27587237 rev/d
Perigee alt
482.4 km
Apogee alt
483.7 km
Semi-major
6,861.2 km
B*
4.1519e-4
RAAN
330.3068°
Arg perigee
267.2563°
Mean anomaly
92.8176°
Rev number
4,864

§ Raw data

STARLINK-348441 66486U 25263B   26263.48408162  .00011183  00000+0  41519-3 0  99962 66486  43.0044 330.3068 0000985 267.2563  92.8176 15.27587237 48645

JSON: /api/v1/satellites/66486 · /tle

For live sub-satellite position, see the globe view (requires WebGL).

§ Visibility from observer

Set your observer location to see the next 7 days of passes ≥ 10°. The values pass through the URL so the page stays shareable.

No JS? Fill the form by hand. The geolocation button needs JavaScript.